SL-8 DEB, 21168

Orbit data source: Space-Track

SL-8 DEB, 21168 is space debris in LEO originally from a launch on Tue, 12 Feb 1991 UTC launched from the Plesetsk Missile And Space Complex (PKMTR). Debris objects in space refer to the collection of defunct objects orbiting the Earth. Examples of debris include non-operational satellites, rocket bodies, and fragments generated from explosions, collisions, or faulty payload assembly.

Loading next visibility...
Identifier
21168, 1991-009AF
Orbit
LEO
Country
Flag of CISCIS
Related business
Manufacturer
Unknown
Mission
Spacecraft
Bus & Motor
Unknown
Mass
Unknown
Launch date (UTC)
1991-02-12 (35 years ago)
Launch vehicle
Unknown
Launch site
Plesetsk Missile And Space Complex (PKMTR)
Object type
Payload
Rocket body
Debris
Shape & HBR
Unknown shape, 0.2 m
Radar Cross Section
Medium (>0.1 m² and <1 m²)

Expand to show TLE details & history
Last TLE update: 2 days ago

TLE from 2 days ago
0 SL-8 DEB
1 21168U 91009AF  26171.42421175  .00000002  00000-0  14188-3 0  9997
2 21168  73.8946 157.3593 0198029 181.1696 333.8851 12.27803673581577
Epoch: 2026-06-20T10:10Z
TLE epoch observation values (Epoch: 2026-06-20T10:10:51.895Z)
Latitude
24.90952°
Longitude
-91.66332°
Altitude
1,420.699 km
Speed
7.216 km/s
True Right ascension
21h 58m 46s
True Declination
24° 47' 22"
Sunlit
Object was in daylight at epoch
Visualization orbit readout
Latitude
Unknown
Longitude
Unknown
Altitude
Unknown
Speed
Unknown
Apparent Right ascension
Unknown
Apparent Declination
Unknown
Sunlit
N/A
Visualization observer readout
Local Sidereal Time
05:18:16
Azimuth
Unknown
Elevation
Unknown
Doppler factor
Unknown
Orbital elements
Apogee altitude
1,713.733 km
Perigee altitude
1,399.471 km
Semi-major axis
7,934.739 km
Eccentricity
0.0198
Inclination
73.8946°
RAAN
157.3593°
Arg. of periapsis
181.1696°
True anomaly
332.86361°
Mean anomaly
333.8851°
Eccentric anomaly
333.37665°
Mean motion
3.07075 °/min
Orbital period
117.24 mins
BSTAR
0.00014188
Loading maneuver chart data...
Computing Atmospheric mass density...
Loading historical data...
Loading historical data...
Loading historical data...
Loading historical data...
Loading historical data...
Loading historical data...
Loading historical data...

Documentation

Showing up to 5 results
|